Location: Arroyo Hondo
(5.5146°N, 75.7775°W)
Time: 11:58:10
(UTC+00:00)

Daily predictions for brighter satellites

Satellite Brightness Start Highest point End
(mag) Time Altitude Azimuth Time Altitude Azimuth Time Altitude Azimuth
Cosmos 2366 rocket 4.1 23:29:04 10° SSE 23:35:11 54° E 23:41:13 10° NNE
ARIANE 5 DEB (SYLDA) 3.7 23:33:26 10° WSW 23:37:22 62° S 23:49:25 10° E
Cosmos 1933 4.2 23:36:16 10° NNE 23:39:53 30° E 23:43:30 10° SSE
Ariane H10 4.4 23:40:13 10° SSW 23:41:47 16° SSE 23:43:55 10° ESE
NATO 3D Rocket 4.3 23:36:17 10° WNW 23:42:20 86° NNE 23:51:12 10° ESE
SL-8 Rocket 4.0 23:37:59 10° S 23:44:08 90° NNW 23:50:19 10° N
Cosmos 407 Rocket 3.6 23:40:47 10° S 23:46:02 58° ESE 23:51:15 10° NNE
Cosmos 1190 Rocket 4.3 23:43:27 10° S 23:48:26 46° ESE 23:53:26 10° NNE
Cosmos 2082 Rocket 2.3 23:44:32 10° S 23:50:07 56° ESE 23:55:39 10° NNE
Cosmos 1939 Rocket 2.8 23:47:14 10° S 23:51:05 89° WNW 23:54:55 10° NNW
Cosmos 1151 Rocket 3.1 23:49:45 10° N 23:53:55 51° E 23:58:08 10° SSE
